Погода Марьина Горка

Погода Марьина Горка : погода сейчас, прогноз погоды и архив. Всё, что Вы хотите узнать о погоде Марьина Горка!

Хотите узнать прогноз погоды Марьина Горка? Тогда Вам сюда: Погода Марьина Горка

Поиск расширенной информации на нашем сайте:

Другие новости

Новости СМИ2

Главная страница сайта

Новости сайта

03.07.2017

Напоминаем, что на нашем специализированном сайте Метеоцентр.Азия вы можете получить высокодетализированные автоматические прогнозы погоды по пунктам России, СНГ и мира в авиационном формате (включающие направление и скорость ветра, видимость, явления погоды, количество и форму облачности, нижнюю и верхнюю границу облачности).


Погода Марьина Горка - сегодня

Время (UTC), дата Ветер
(°,м/с) 
Видим.   Явления Облачность Т
(°С)
Тd
(°С)
f(%) Тe
(°С)
Pmin
(гПа)
dP
(гПа)
Po
(мм)
O2
(г/м3)
Тmin Tmax R s Состояние
почвы
03 12.12.17 140 (ЮВ) 5000 м  дымка  9/8 600 м средняя 
[Sc|Ac und]
-0.3 -0.6 98 -2  1003.8  -1  736  297         
06 12.12.17 140 (ЮВ) 6000 м  дымка  9/6 600 м средняя 
[Sc|Ac und]
+0.7 +0.4 98 +1  1003.6  -0.1  736  296  -1.3      равномерный
мокрый или
старый снег
100% 
09 12.12.17 160 (Ю) 8000 м  дымка  9/9 2000 м средняя 
[Ac und]
+1.8 +1.2 96 +3  1003  -0.5  736  294           
12 12.12.17 170 (Ю) 8000 м  дымка  9/9 2000 м средняя 
[Ac und]
+3.5 +3.1 97 +3  1002.2  -0.6  736  292           
15 12.12.17 160 (Ю) 8000 м  дымка  9/9 2000 м средняя 
[Ac und]
+4 +3.6 97 +4  1003.4  1.2  736  292           
18 12.12.17 200 (Ю) 8000 м  дымка  9/9 2000 м средняя 
[Ac und]
+5.1 +4.4 95 +5  1004.8  1.5  738  291    +5.3     
21 12.12.17 210 (ЮЗ) 8000 м  дымка  9/9 2000 м средняя 
[Ac und]
+5.5 +4.9 96 +5  1006.9  739  291           
00 13.12.17 220 (ЮЗ) 8000 м  дымка  8/5 600 м средняя 
[Sc|Ac und]
+5 +4.1 94 +4  1008.6  1.7  740  292           
03 13.12.17 230 (ЮЗ) 11000 м    8/3 600 м средняя 
[Sc|Ac und]
+2.8 +0.4 84 +1  1010.7  1.8  742  296        <0.5   
06 13.12.17 230 (ЮЗ) 11000 м    8/3 600 м средняя 
[Sc|Ac und]
+1.8 -0.5 85 +1  1012.5  1.7  743  297  +1.8      <0.5  мокрый или
старый снег
50-90% 
09 13.12.17 230 (ЮЗ) 12000 м    10/3 2000 м средняя, верхняя 
[Ac und|Cs]
+2.4 +0 84 +2  1014  1.5  744  297           
12 13.12.17 260 (З) 12000 м    9/3 600 м средняя 
[Sc|Ac und]
+2 -0.6 83 +1  1014.6  0.6  745  298           
15 13.12.17 210 (ЮЗ) 9000 м  дымка  3/3 2000 м средняя 
[Ac und]
-0.6 -1.7 92 1015.1  0.3  745  301           
18 13.12.17 200 (Ю) 6000 м  дымка  3/3 2000 м средняя 
[Ac und]
-2 -2.3 98 -1  1015  -0.2  745  302    +2.6     
21 13.12.17 180 (Ю) 4500 м  дымка  ясно 
-3.3 -3.6 98 -3  1014.2  -0.9  744  304           
00 14.12.17 тихо ()   4300 м  дымка  ясно 
-4.1 -4.3 99 -4  1012.6  -1.7  743  304           
03 14.12.17 120 (ЮВ) 4300 м  дымка  ясно 
-3.8 -4.3 96 -3  1010.6  -1.9  741  303         
06 14.12.17 130 (ЮВ) 4500 м  дымка  9/9 600 м 
[Sc]
-2.2 -2.8 96 -2  1008  -2.4  739  301  -4.3      мокрый или
старый снег
10-40% 
09 14.12.17 160 (Ю) 5000 м  дымка  9/9 600 м 
[Sc]
-0.3 -0.8 96 1005.8  -2  738  298           
12 14.12.17 180 (Ю) 7000 м  дымка  9/9 600 м 
[Sc]
+0.7 +0.1 96 1003.2  -2.5  736  296           
15 14.12.17 170 (Ю) 8000 м  дымка  9/9 600 м 
[Sc]
+0.9 -0.3 92 -1  1002  -1.1  735  295           
18 14.12.17 170 (Ю) 4200 м  слаб. снег  10/6 300 м средняя 
[Frnb|As op]
+0.5 +0.2 98 1000.9  -1.1  734  295    +1  0.4  <0.5   
21 14.12.17 190 (Ю) 5000 м  в посл. час снег  10/8 300 м средняя 
[St|As op]
+0.6 +0.3 98 -1  1000.1  -0.8  734  295           
00 15.12.17 190 (Ю) 5000 м  дымка{снег}  4/4 300 м 
[Sc]
+1.2 +0.9 98 1000.5  0.4  734  294           
03 15.12.17 180 (Ю) 7000 м  дымка  3/3 2000 м средняя 
[Ac und]
+0.4 +0 97 1001.6  735  296       
Время (UTC), дата Ветер
(°,м/с) 
Видим.   Явления Облачность Т
(°С)
Тd
(°С)
f(%) Тe
(°С)
Pmin
(гПа)
dP
(гПа)
Po
(мм)
O2
(г/м3)
Тmin Tmax R s Состояние
почвы

Для получения пояснительной информации подведите курсор к названию столбца.

ПОГОДА Марьина Горка - архив

Всё, что Вы хотите узнать о погоде Марьина Горка - удобно и подробно!

Выберите нужную дату (начиная с 1 января 2015* года) и нажмите кнопку "Найти".
Будут отображены архивные сводки погоды по пункту Марьина Горка, начиная с указанной даты.


Отображать данные в формате CSV (для использования в таблицах Excel)


Внимание! Наш архив погоды предназначен исключительно для личного некоммерческого использования в познавательных целях. Если Вам необходимы официальные справки о состоянии погоды (для производственных, юридических, коммерческих и т.п. целей), обращайтесь в органы Росгидромета.

*Примечание: данная дата относится к архиву по метеостанциям СССР (Россия, СНГ, Балтия).
Архив по метеостанциям Зарубежной Европы и Азии (кроме Китая) хранится 10 дней, по другим регионам земного шара (Китай, Африка, Америка, Австралия, Океания) - 1 день.

Марьина Горка - район местоположения метеостанции


Название, широта, долгота, высота метеостанции:
Марьина Горка 55.4°ш. 28.1°д. 177 м над ур. моря [Беларусь]

Дополнительная информация

В oтличие oт бoльшинства пoгoдных сайтoв мы публикуем пoдрoбную метеoинфoрмацию в детальнoм прoфессиoнальнoм фoрмате.

Характеристики температуры и влажнoсти вoздуха измеряются на высoте 2 м в тени вдали oт зданий и деревьев.
Скoрoсть ветра измеряется на высoте 10 м (на урoвне рoста челoвека скoрoсть ветра ниже в 1.5-2 раза). Если метеoстанция нахoдится в гoрoде или в лесу, тo скoрoсть ветра занижена на 2-4 м/с пo сравнению с oткрытым местoм. Скoрoсть ветра над акватoриями крупных рек и oзёр, а также на вершинах хoлмoв на 2-5 м/с выше, чем в oбычных услoвиях.
Атмoсфернoе давление в разных тoчках местнoсти мoжет значительнo oтличаться oт давления на метеoстанции, в зависимoсти oт услoвий рельефа (при пoдъёме на 10 м давление пoнижается примернo на 1 мм рт.ст.).